date,City,No. Stations,Air Quality,Index Value,Prominent Pollutant
2019-09-17,Shillong,1.0,Good,32,OZONE
2019-09-18,Shillong,1.0,Good,40,OZONE
2019-09-19,Shillong,1.0,Good,33,OZONE
2019-09-20,Shillong,1.0,Good,27,OZONE
2019-09-21,Shillong,1.0,Good,31,PM2.5
2019-09-22,Shillong,1.0,Good,28,PM2.5
2019-09-23,Shillong,1.0,Good,29,OZONE
2019-09-24,Shillong,1.0,Good,28,OZONE
2019-09-25,Shillong,1.0,Good,31,CO
2019-09-26,Shillong,1.0,Good,27,CO
2019-09-27,Shillong,1.0,Good,28,CO
2019-09-28,Shillong,1.0,Good,44,OZONE
2019-09-29,Shillong,1.0,Good,29,OZONE
2019-09-30,Shillong,1.0,Good,34,OZONE
2019-10-01,Shillong,1.0,Good,35,OZONE
2019-10-02,Shillong,1.0,Good,41,OZONE
2019-10-03,Shillong,1.0,Good,36,CO
2019-10-04,Shillong,1.0,Good,43,OZONE
2019-10-10,Shillong,1.0,Good,35,OZONE
2019-10-11,Shillong,1.0,Good,33,OZONE
2019-10-12,Shillong,1.0,Good,43,OZONE
2019-10-13,Shillong,1.0,Good,40,OZONE
2019-10-14,Shillong,1.0,Good,34,OZONE
2019-10-15,Shillong,1.0,Good,31,OZONE
2019-10-16,Shillong,1.0,Good,31,PM2.5
2019-10-17,Shillong,1.0,Good,35,PM2.5
2019-10-18,Shillong,1.0,Good,34,PM2.5
2019-10-19,Shillong,1.0,Satisfactory,52,OZONE
2019-10-20,Shillong,1.0,Satisfactory,56,PM2.5
2019-10-21,Shillong,1.0,Satisfactory,82,OZONE
2019-10-22,Shillong,1.0,Satisfactory,57,OZONE
2019-10-23,Shillong,1.0,Good,49,PM10
2019-10-24,Shillong,1.0,Satisfactory,53,PM2.5
2019-10-25,Shillong,1.0,Good,29,CO
2019-11-24,Shillong,1.0,Good,15,OZONE
2019-11-25,Shillong,1.0,Good,17,PM2.5
2019-11-26,Shillong,1.0,Good,27,PM2.5
2019-11-27,Shillong,1.0,Good,24,PM2.5
2019-11-28,Shillong,1.0,Good,16,OZONE
2020-01-11,Shillong,1.0,Good,40,PM2.5
2020-01-12,Shillong,1.0,Good,36,PM2.5
2020-01-13,Shillong,1.0,Good,32,O3
2020-01-14,Shillong,1.0,Satisfactory,79,PM2.5
2020-01-15,Shillong,1.0,Satisfactory,71,PM2.5
2020-01-18,Shillong,1.0,Good,48,PM2.5
2020-01-19,Shillong,1.0,Satisfactory,64,O3
2020-01-20,Shillong,1.0,Satisfactory,71,O3
2020-01-21,Shillong,1.0,Good,39,O3
2020-01-23,Shillong,1.0,Satisfactory,52,O3
2020-01-24,Shillong,1.0,Good,46,PM2.5
2020-01-25,Shillong,1.0,Satisfactory,73,PM2.5
2020-01-26,Shillong,1.0,Satisfactory,88,PM2.5
2020-01-27,Shillong,1.0,Satisfactory,90,PM2.5
2020-01-28,Shillong,1.0,Satisfactory,90,PM2.5
2020-01-29,Shillong,1.0,Moderate,125,PM2.5
2020-01-30,Shillong,1.0,Moderate,110,PM2.5
2020-01-31,Shillong,1.0,Satisfactory,76,PM2.5
2020-02-01,Shillong,1.0,Satisfactory,80,PM2.5
2020-02-02,Shillong,1.0,Satisfactory,81,PM2.5
2020-02-03,Shillong,1.0,Satisfactory,92,PM2.5
2020-02-04,Shillong,1.0,Moderate,114,PM2.5
2020-02-05,Shillong,1.0,Moderate,101,PM2.5
2020-02-06,Shillong,1.0,Satisfactory,68,PM2.5
2020-02-07,Shillong,1.0,Moderate,105,PM2.5
2020-02-08,Shillong,1.0,Moderate,103,PM2.5
2020-02-09,Shillong,1.0,Satisfactory,67,PM2.5
2020-02-10,Shillong,1.0,Satisfactory,71,PM2.5
2020-02-11,Shillong,1.0,Satisfactory,81,PM2.5
2020-02-12,Shillong,1.0,Satisfactory,77,PM2.5
2020-02-14,Shillong,1.0,Satisfactory,90,PM2.5
2020-02-15,Shillong,1.0,Moderate,149,PM2.5
2020-02-17,Shillong,1.0,Moderate,152,PM2.5
2020-02-18,Shillong,1.0,Moderate,166,PM2.5
2020-02-19,Shillong,1.0,Moderate,198,PM2.5
2020-02-20,Shillong,1.0,Moderate,153,PM2.5
2020-02-21,Shillong,1.0,Moderate,140,PM2.5
2020-02-25,Shillong,1.0,Good,46,PM2.5
2020-02-26,Shillong,1.0,Good,37,PM2.5
2020-02-27,Shillong,1.0,Good,34,O3
2020-02-28,Shillong,1.0,Good,25,PM2.5
2020-02-29,Shillong,1.0,Good,39,O3
2020-03-01,Shillong,1.0,Good,45,PM2.5
2020-03-02,Shillong,1.0,Satisfactory,57,PM2.5
2020-03-03,Shillong,1.0,Satisfactory,59,PM2.5
2020-03-04,Shillong,1.0,Satisfactory,54,PM2.5
2020-03-05,Shillong,1.0,Good,45,PM2.5
2020-03-06,Shillong,1.0,Satisfactory,51,PM2.5
2020-03-07,Shillong,1.0,Good,43,O3
2020-03-08,Shillong,1.0,Satisfactory,60,O3
2020-03-09,Shillong,1.0,Satisfactory,51,O3
2020-03-10,Shillong,1.0,Satisfactory,65,PM2.5
2020-03-11,Shillong,1.0,Satisfactory,57,O3
2020-03-12,Shillong,1.0,Good,45,O3
2020-03-13,Shillong,1.0,Satisfactory,69,PM2.5
2020-03-14,Shillong,1.0,Moderate,101,PM2.5
2020-03-15,Shillong,1.0,Satisfactory,75,PM2.5
2020-03-16,Shillong,1.0,Good,45,O3
2020-03-17,Shillong,1.0,Satisfactory,54,PM2.5
2020-03-18,Shillong,1.0,Satisfactory,90,PM2.5
2020-03-19,Shillong,1.0,Moderate,101,PM2.5
2020-03-20,Shillong,1.0,Satisfactory,100,PM2.5
2020-03-21,Shillong,1.0,Moderate,115,PM2.5
2020-03-22,Shillong,1.0,Satisfactory,60,PM2.5
2020-03-24,Shillong,1.0,Good,46,PM2.5
2020-03-25,Shillong,1.0,Satisfactory,73,PM2.5
2020-03-26,Shillong,1.0,Satisfactory,71,PM2.5
2020-03-27,Shillong,1.0,Moderate,103,PM2.5
2020-03-28,Shillong,1.0,Satisfactory,80,PM2.5
2020-03-29,Shillong,1.0,Good,47,PM10
2020-03-30,Shillong,1.0,Satisfactory,66,PM2.5
2020-03-31,Shillong,1.0,Moderate,155,PM2.5
2020-04-01,Shillong,1.0,Moderate,117,PM2.5
2020-04-02,Shillong,1.0,Satisfactory,80,PM10
2020-04-03,Shillong,1.0,Satisfactory,74,PM10
2020-05-02,Shillong,1.0,Good,27,PM2.5
2020-05-03,Shillong,1.0,Good,16,PM2.5
2020-05-04,Shillong,1.0,Good,21,PM2.5
2020-05-05,Shillong,1.0,Good,31,PM2.5
2020-05-06,Shillong,1.0,Good,22,PM2.5
2020-05-07,Shillong,1.0,Good,28,O3
2020-05-08,Shillong,1.0,Good,34,O3
2020-05-09,Shillong,1.0,Good,34,PM2.5
2020-05-10,Shillong,1.0,Good,44,PM2.5
2020-05-11,Shillong,1.0,Good,35,PM2.5
2020-05-12,Shillong,1.0,Good,37,PM2.5
2020-05-13,Shillong,1.0,Satisfactory,52,PM2.5
2020-05-14,Shillong,1.0,Good,40,PM2.5
2020-05-15,Shillong,1.0,Good,27,PM2.5
2020-05-20,Shillong,1.0,Good,39,PM2.5
2020-05-22,Shillong,1.0,Good,11,CO
2020-05-23,Shillong,1.0,Good,31,PM2.5
2020-05-24,Shillong,1.0,Good,34,PM2.5
2020-05-25,Shillong,1.0,Good,26,PM2.5
2020-05-26,Shillong,1.0,Good,13,O3
2020-05-27,Shillong,1.0,Good,21,O3
2020-05-28,Shillong,1.0,Good,19,PM2.5
2020-05-29,Shillong,1.0,Good,22,PM2.5
2020-05-30,Shillong,1.0,Good,22,PM2.5
2020-05-31,Shillong,1.0,Good,22,PM10
2020-06-01,Shillong,1.0,Good,27,PM2.5
2020-06-02,Shillong,1.0,Good,29,PM2.5
2020-06-03,Shillong,1.0,Good,35,PM2.5
2020-06-04,Shillong,1.0,Good,32,PM2.5
2020-06-05,Shillong,1.0,Good,32,PM2.5
2020-06-06,Shillong,1.0,Good,13,SO2
2020-06-07,Shillong,1.0,Good,34,PM2.5
2020-06-08,Shillong,1.0,Good,35,PM2.5
2020-06-09,Shillong,1.0,Good,40,PM2.5
2020-06-10,Shillong,1.0,Good,27,PM2.5
2020-06-11,Shillong,1.0,Good,25,O3
2020-06-12,Shillong,1.0,Good,29,O3
2020-06-13,Shillong,1.0,Good,26,O3
2020-06-18,Shillong,1.0,Good,28,O3
2020-06-19,Shillong,1.0,Good,42,O3
2020-06-20,Shillong,1.0,Good,38,O3
2020-06-21,Shillong,1.0,Good,31,O3
2020-06-22,Shillong,1.0,Good,40,O3
2020-06-23,Shillong,1.0,Good,42,O3
2020-06-24,Shillong,1.0,Good,27,O3
2020-06-25,Shillong,1.0,Good,17,PM2.5
2020-06-27,Shillong,1.0,Good,31,O3
2020-06-28,Shillong,1.0,Good,29,O3
2020-06-29,Shillong,1.0,Good,20,PM2.5
2020-06-30,Shillong,1.0,Good,23,PM2.5
2020-07-01,Shillong,1.0,Good,23,PM2.5
2020-07-02,Shillong,1.0,Good,20,PM2.5
2020-07-03,Shillong,1.0,Good,21,PM2.5
2020-07-04,Shillong,1.0,Good,17,PM2.5
2020-07-05,Shillong,1.0,Good,12,PM2.5
2020-07-08,Shillong,1.0,Good,7,O3
2020-07-13,Shillong,1.0,Good,14,PM2.5
2020-07-17,Shillong,1.0,Good,8,O3
2020-07-18,Shillong,1.0,Good,9,O3
2020-07-19,Shillong,1.0,Good,12,O3
2020-07-20,Shillong,1.0,Good,19,O3
2020-07-21,Shillong,1.0,Good,17,O3
2020-07-31,Shillong,1.0,Good,15,PM2.5
2020-08-01,Shillong,1.0,Good,25,PM2.5
2020-08-03,Shillong,1.0,Good,19,PM2.5
2020-08-04,Shillong,1.0,Good,22,PM2.5
2020-08-05,Shillong,1.0,Good,8,SO2
2020-08-07,Shillong,1.0,Good,9,PM2.5
2020-08-08,Shillong,1.0,Good,12,PM2.5
2020-08-09,Shillong,1.0,Good,10,PM2.5
2020-08-10,Shillong,1.0,Good,9,O3
2020-08-11,Shillong,1.0,Good,10,PM2.5
2020-08-12,Shillong,1.0,Good,7,O3
2020-08-13,Shillong,1.0,Good,10,PM2.5
2020-08-15,Shillong,1.0,Good,7,O3
2020-08-16,Shillong,1.0,Good,7,SO2
2020-08-17,Shillong,1.0,Good,7,SO2
2020-08-18,Shillong,1.0,Good,8,SO2
2020-08-19,Shillong,1.0,Good,8,SO2
2020-08-20,Shillong,1.0,Good,8,SO2
2020-08-21,Shillong,1.0,Good,11,PM2.5
2020-08-22,Shillong,1.0,Good,15,PM2.5
2020-08-24,Shillong,1.0,Good,14,PM2.5
2020-08-25,Shillong,1.0,Good,20,PM2.5
2020-08-26,Shillong,1.0,Good,12,PM10
2020-08-27,Shillong,1.0,Good,14,PM10
2020-09-01,Shillong,1.0,Good,25,PM2.5
2020-09-02,Shillong,1.0,Good,13,PM2.5
2020-09-03,Shillong,1.0,Good,19,PM2.5
2020-09-04,Shillong,1.0,Good,29,PM2.5
2020-09-05,Shillong,1.0,Good,27,PM2.5
2020-09-06,Shillong,1.0,Good,23,O3
2020-09-07,Shillong,1.0,Good,26,O3
2020-09-08,Shillong,1.0,Good,22,PM2.5
2020-09-09,Shillong,1.0,Good,29,PM2.5
2020-09-10,Shillong,1.0,Good,30,PM2.5
2020-09-11,Shillong,1.0,Good,16,PM2.5
2020-09-12,Shillong,1.0,Good,10,PM2.5
2020-09-13,Shillong,1.0,Good,11,O3
2020-09-14,Shillong,1.0,Good,9,PM2.5
2020-09-15,Shillong,1.0,Good,9,PM2.5
2020-09-17,Shillong,1.0,Good,12,O3
2020-09-18,Shillong,1.0,Good,21,PM2.5
2020-09-19,Shillong,1.0,Good,20,PM2.5
2020-09-20,Shillong,1.0,Good,12,PM2.5
2020-09-21,Shillong,1.0,Good,12,SO2
2020-09-22,Shillong,1.0,Good,9,CO
2020-09-23,Shillong,1.0,Good,10,PM2.5
2020-09-24,Shillong,1.0,Good,12,CO
2020-09-27,Shillong,1.0,Good,12,PM2.5
2020-09-28,Shillong,1.0,Good,17,PM2.5
2020-09-29,Shillong,1.0,Good,22,PM2.5
2020-09-30,Shillong,1.0,Good,30,PM2.5
2020-10-01,Shillong,1.0,Good,31,PM2.5
2020-10-02,Shillong,1.0,Good,16,PM10
2020-10-03,Shillong,1.0,Good,20,PM2.5
2020-10-04,Shillong,1.0,Good,30,PM2.5
2020-10-05,Shillong,1.0,Good,27,PM2.5
2020-10-06,Shillong,1.0,Good,24,PM2.5
2020-10-08,Shillong,1.0,Good,18,PM2.5
2020-10-10,Shillong,1.0,Good,21,PM2.5
2020-10-11,Shillong,1.0,Good,26,PM2.5
2020-10-12,Shillong,1.0,Good,24,PM2.5
2020-10-13,Shillong,1.0,Good,27,PM2.5
2020-10-14,Shillong,1.0,Good,30,PM2.5
2020-10-15,Shillong,1.0,Good,21,PM2.5
2020-10-16,Shillong,1.0,Good,30,PM2.5
2020-10-17,Shillong,1.0,Good,25,PM2.5
2020-10-18,Shillong,1.0,Good,25,PM2.5
2020-10-19,Shillong,1.0,Good,34,PM2.5
2020-10-20,Shillong,1.0,Good,25,PM10
2020-10-21,Shillong,1.0,Good,31,PM2.5
2020-10-22,Shillong,1.0,Good,28,PM2.5
2020-10-23,Shillong,1.0,Good,17,PM2.5
2020-10-24,Shillong,1.0,Good,9,SO2
2020-10-25,Shillong,1.0,Good,13,O3
2020-10-26,Shillong,1.0,Good,18,PM2.5
2020-10-27,Shillong,1.0,Good,21,PM2.5
2020-10-28,Shillong,1.0,Good,22,PM2.5
2020-10-29,Shillong,1.0,Good,22,PM2.5
2020-10-30,Shillong,1.0,Good,12,PM10
2020-10-31,Shillong,1.0,Good,18,PM2.5
2020-11-01,Shillong,1.0,Good,18,PM2.5
2020-11-02,Shillong,1.0,Good,13,PM2.5
2020-11-03,Shillong,1.0,Good,22,PM2.5
2020-11-04,Shillong,1.0,Good,27,O3
2020-11-05,Shillong,1.0,Good,47,PM2.5
2020-11-06,Shillong,1.0,Satisfactory,57,PM2.5
2020-11-07,Shillong,1.0,Good,33,PM2.5
2020-11-08,Shillong,1.0,Good,19,PM2.5
2020-11-09,Shillong,1.0,Good,24,O3
2020-11-10,Shillong,1.0,Good,18,O3
2020-11-13,Shillong,1.0,Good,27,O3
2020-11-15,Shillong,1.0,Good,20,O3
2020-11-16,Shillong,1.0,Good,16,O3
2020-11-17,Shillong,1.0,Good,25,PM2.5
2020-11-18,Shillong,1.0,Good,35,PM10
2020-11-19,Shillong,1.0,Satisfactory,57,PM2.5
2020-11-20,Shillong,1.0,Satisfactory,63,PM2.5
2020-11-21,Shillong,1.0,Satisfactory,77,PM2.5
2020-11-22,Shillong,1.0,Satisfactory,63,PM2.5
2020-11-23,Shillong,1.0,Satisfactory,73,PM2.5
2020-11-24,Shillong,1.0,Good,35,PM2.5
2020-11-25,Shillong,1.0,Good,23,PM10
2020-11-27,Shillong,1.0,Good,26,PM10
2020-11-28,Shillong,1.0,Good,21,PM10
2020-11-29,Shillong,1.0,Good,25,PM2.5
2020-11-30,Shillong,1.0,Good,21,O3
2020-12-01,Shillong,1.0,Good,22,O3
2020-12-02,Shillong,1.0,Good,26,O3
2020-12-05,Shillong,1.0,Good,43,PM2.5
2020-12-11,Shillong,1.0,Good,29,PM2.5
2020-12-12,Shillong,1.0,Satisfactory,63,PM2.5
2020-12-13,Shillong,1.0,Satisfactory,88,PM2.5
2020-12-14,Shillong,1.0,Satisfactory,80,PM2.5
2020-12-15,Shillong,1.0,Satisfactory,94,PM2.5
2020-12-16,Shillong,1.0,Satisfactory,85,PM2.5
2020-12-17,Shillong,1.0,Good,39,PM2.5
2020-12-24,Shillong,1.0,Good,29,PM2.5
2020-12-25,Shillong,1.0,Good,23,O3
2020-12-26,Shillong,1.0,Good,23,PM10
2020-12-27,Shillong,1.0,Good,20,PM10
2020-12-28,Shillong,1.0,Good,21,O3
2020-12-29,Shillong,1.0,Good,24,PM10
2020-12-30,Shillong,1.0,Good,21,O3
2020-12-31,Shillong,1.0,Good,25,O3
2021-01-01,Shillong,1.0,Good,23,O3
2021-01-02,Shillong,1.0,Good,23,O3
2021-01-03,Shillong,1.0,Good,26,O3
2021-01-04,Shillong,1.0,Good,25,O3
2021-01-05,Shillong,1.0,Good,24,O3
2021-01-06,Shillong,1.0,Good,28,O3
2021-01-07,Shillong,1.0,Good,31,O3
2021-01-15,Shillong,1.0,Satisfactory,63,PM2.5
2021-01-18,Shillong,1.0,Good,35,PM2.5
2021-01-20,Shillong,1.0,Satisfactory,62,PM2.5
2021-01-21,Shillong,1.0,Satisfactory,66,PM2.5
2021-02-19,Shillong,1.0,Good,16,PM2.5
2021-02-27,Shillong,1.0,Satisfactory,79,PM2.5
2021-02-28,Shillong,1.0,Satisfactory,84,PM10
2021-03-01,Shillong,1.0,Satisfactory,78,PM10
2021-03-02,Shillong,1.0,Satisfactory,73,PM2.5
2021-03-03,Shillong,1.0,Satisfactory,51,PM2.5
2021-03-05,Shillong,1.0,Moderate,144,PM10
2021-03-06,Shillong,1.0,Satisfactory,67,O3
2021-03-13,Shillong,1.0,Good,40,O3
2021-03-14,Shillong,1.0,Good,43,O3
2021-03-15,Shillong,1.0,Good,41,O3
2021-03-16,Shillong,1.0,Good,42,O3
2021-03-17,Shillong,1.0,Satisfactory,53,O3
2021-03-18,Shillong,1.0,Good,43,O3
2021-03-19,Shillong,1.0,Good,48,O3
2021-03-20,Shillong,1.0,Good,49,O3
2021-03-21,Shillong,1.0,Satisfactory,67,O3
2021-03-22,Shillong,1.0,Good,49,O3
2021-03-23,Shillong,1.0,Satisfactory,71,O3
2021-03-24,Shillong,1.0,Satisfactory,75,O3
2021-03-25,Shillong,1.0,Satisfactory,64,PM10
2021-03-26,Shillong,1.0,Satisfactory,80,PM10
2021-03-27,Shillong,1.0,Moderate,113,PM10
2021-03-28,Shillong,1.0,Moderate,109,PM10
2021-03-29,Shillong,1.0,Moderate,145,PM10
2021-03-31,Shillong,1.0,Satisfactory,52,O3
2021-04-06,Shillong,1.0,Satisfactory,80,PM2.5
2021-04-07,Shillong,1.0,Satisfactory,61,PM2.5
2021-04-08,Shillong,1.0,Satisfactory,51,PM2.5
2021-04-28,Shillong,1.0,Good,42,PM2.5
2021-05-06,Shillong,1.0,Good,20,PM2.5
2021-05-07,Shillong,1.0,Good,18,PM2.5
2021-05-09,Shillong,1.0,Good,22,PM2.5
2021-05-10,Shillong,1.0,Good,21,PM2.5
2021-05-11,Shillong,1.0,Good,12,PM2.5
2021-05-12,Shillong,1.0,Good,13,PM10
2021-05-13,Shillong,1.0,Good,11,SO2
2021-05-14,Shillong,1.0,Good,10,SO2
2021-05-15,Shillong,1.0,Good,17,PM10
2021-05-16,Shillong,1.0,Good,21,PM10
2021-05-17,Shillong,1.0,Good,21,PM10
2021-05-18,Shillong,1.0,Good,22,PM10
2021-05-19,Shillong,1.0,Good,20,PM10
2021-05-20,Shillong,1.0,Good,26,PM10
2021-07-15,Shillong,1.0,Good,13,SO2
2021-07-16,Shillong,1.0,Good,14,SO2
2021-07-17,Shillong,1.0,Good,12,SO2
2021-07-18,Shillong,1.0,Good,11,SO2
2021-07-19,Shillong,1.0,Good,11,SO2
2021-07-20,Shillong,1.0,Good,12,SO2
2021-07-21,Shillong,1.0,Good,13,SO2
2021-07-22,Shillong,1.0,Good,12,SO2
2021-07-23,Shillong,1.0,Good,13,SO2
2021-07-24,Shillong,1.0,Good,14,SO2
2021-07-26,Shillong,1.0,Good,13,SO2
2021-07-27,Shillong,1.0,Good,13,SO2
2021-07-28,Shillong,1.0,Good,14,SO2
2021-07-29,Shillong,1.0,Good,13,SO2
2021-07-31,Shillong,1.0,Good,13,SO2
2021-08-01,Shillong,1.0,Good,13,SO2
2021-08-02,Shillong,1.0,Good,12,SO2
2021-08-03,Shillong,1.0,Good,12,SO2
2021-08-04,Shillong,1.0,Good,13,SO2
2021-08-06,Shillong,1.0,Good,13,SO2
2021-08-07,Shillong,1.0,Good,11,SO2
2021-08-09,Shillong,1.0,Good,12,SO2
2021-08-14,Shillong,1.0,Good,16,O3
2021-08-15,Shillong,1.0,Good,16,SO2
2021-08-16,Shillong,1.0,Good,17,SO2
2021-08-17,Shillong,1.0,Good,17,SO2
2021-08-20,Shillong,1.0,Good,16,SO2
2021-08-21,Shillong,1.0,Good,14,SO2
2021-08-23,Shillong,1.0,Good,15,SO2
2021-08-26,Shillong,1.0,Good,16,SO2
2021-08-28,Shillong,1.0,Good,15,SO2
2021-08-29,Shillong,1.0,Good,16,SO2
2021-08-30,Shillong,1.0,Good,17,SO2
2021-09-01,Shillong,1.0,Good,16,SO2
2021-09-02,Shillong,1.0,Good,15,SO2
2021-09-03,Shillong,1.0,Good,15,SO2
2021-09-04,Shillong,1.0,Good,15,SO2
2021-09-05,Shillong,1.0,Good,15,SO2
2021-09-06,Shillong,1.0,Good,16,SO2
2021-09-07,Shillong,1.0,Good,15,SO2
2021-09-08,Shillong,1.0,Good,16,SO2
2021-09-09,Shillong,1.0,Good,15,SO2
2021-09-10,Shillong,1.0,Good,14,SO2
2021-09-11,Shillong,1.0,Good,14,SO2
2021-09-12,Shillong,1.0,Good,14,SO2
2021-09-13,Shillong,1.0,Good,15,SO2
2021-09-14,Shillong,1.0,Good,17,SO2
2021-09-15,Shillong,1.0,Good,16,SO2
2021-09-22,Shillong,1.0,Good,15,SO2
2021-09-23,Shillong,1.0,Good,16,SO2
2021-09-24,Shillong,1.0,Good,16,SO2
2021-09-25,Shillong,1.0,Good,15,SO2
2021-09-26,Shillong,1.0,Good,15,SO2
2021-09-27,Shillong,1.0,Good,18,SO2
2021-09-28,Shillong,1.0,Good,19,SO2
2021-09-29,Shillong,1.0,Good,18,SO2
2021-09-30,Shillong,1.0,Good,18,SO2
2021-10-01,Shillong,1.0,Good,16,SO2
2021-10-02,Shillong,1.0,Good,17,SO2
2021-10-05,Shillong,1.0,Good,16,SO2
2021-10-06,Shillong,1.0,Good,15,SO2
2021-10-07,Shillong,1.0,Good,16,PM2.5
2021-10-08,Shillong,1.0,Good,18,PM2.5
2021-10-09,Shillong,1.0,Good,20,PM2.5
2021-10-10,Shillong,1.0,Good,17,SO2
2021-10-11,Shillong,1.0,Good,18,SO2
2021-10-12,Shillong,1.0,Good,20,SO2
2021-10-21,Shillong,1.0,Good,18,SO2
2021-10-25,Shillong,1.0,Good,18,PM2.5
2021-10-26,Shillong,1.0,Good,21,PM2.5
2021-10-29,Shillong,1.0,Good,11,SO2
2021-10-30,Shillong,1.0,Good,13,SO2
2021-10-31,Shillong,1.0,Good,12,SO2
2021-11-01,Shillong,1.0,Good,13,SO2
2021-11-02,Shillong,1.0,Good,20,PM2.5
2021-11-03,Shillong,1.0,Good,14,PM2.5
2021-11-04,Shillong,1.0,Good,16,PM2.5
2021-11-05,Shillong,1.0,Good,22,PM2.5
2021-11-06,Shillong,1.0,Good,12,SO2
2021-11-07,Shillong,1.0,Good,11,SO2
2021-11-08,Shillong,1.0,Good,11,O3
2021-11-09,Shillong,1.0,Good,12,SO2
2021-11-10,Shillong,1.0,Good,13,SO2
2021-11-18,Shillong,1.0,Good,12,SO2
2021-11-20,Shillong,1.0,Good,25,PM2.5
2021-11-21,Shillong,1.0,Good,33,PM2.5
2021-11-22,Shillong,1.0,Good,28,PM2.5
2021-11-23,Shillong,1.0,Good,35,PM2.5
2021-11-24,Shillong,1.0,Good,38,PM2.5
2021-12-01,Shillong,1.0,Good,21,SO2
2021-12-02,Shillong,1.0,Good,21,SO2
2021-12-03,Shillong,1.0,Good,22,SO2
2021-12-04,Shillong,1.0,Good,24,SO2
2021-12-05,Shillong,1.0,Good,26,SO2
2021-12-06,Shillong,1.0,Good,28,SO2
2021-12-07,Shillong,1.0,Good,24,SO2
2021-12-09,Shillong,1.0,Good,22,SO2
2021-12-10,Shillong,1.0,Good,23,SO2
2021-12-11,Shillong,1.0,Good,26,O3
2021-12-12,Shillong,1.0,Good,28,PM2.5
2021-12-13,Shillong,1.0,Good,21,SO2
2021-12-14,Shillong,1.0,Good,24,SO2
2021-12-15,Shillong,1.0,Good,22,SO2
2021-12-18,Shillong,1.0,Good,19,PM2.5
2021-12-19,Shillong,1.0,Good,25,PM2.5
2021-12-20,Shillong,1.0,Good,15,O3
2021-12-21,Shillong,1.0,Good,17,PM2.5
2021-12-22,Shillong,1.0,Good,19,PM2.5
2021-12-23,Shillong,1.0,Good,11,O3
2021-12-24,Shillong,1.0,Good,19,PM2.5
2021-12-25,Shillong,1.0,Good,20,PM2.5
2021-12-26,Shillong,1.0,Good,19,PM2.5
2021-12-27,Shillong,1.0,Good,19,PM2.5
2021-12-28,Shillong,1.0,Good,19,PM2.5
2021-12-29,Shillong,1.0,Good,20,PM2.5
2021-12-30,Shillong,1.0,Good,19,PM2.5
2021-12-31,Shillong,1.0,Good,21,O3
2022-01-01,Shillong,1.0,Good,20,PM2.5
2022-01-02,Shillong,1.0,Good,18,O3
2022-01-03,Shillong,1.0,Good,27,PM2.5
2022-01-04,Shillong,1.0,Good,33,PM2.5
2022-01-05,Shillong,1.0,Good,30,PM2.5
2022-01-06,Shillong,1.0,Good,13,PM10
2022-01-07,Shillong,1.0,Good,36,PM2.5
2022-01-08,Shillong,1.0,Good,35,PM2.5
2022-01-09,Shillong,1.0,Good,30,PM2.5
2022-01-10,Shillong,1.0,Good,34,PM2.5
2022-01-14,Shillong,1.0,Good,23,PM2.5
2022-01-15,Shillong,1.0,Good,31,PM2.5
2022-01-16,Shillong,1.0,Good,28,PM2.5
2022-01-17,Shillong,1.0,Good,27,PM2.5
2022-01-18,Shillong,1.0,Good,17,O3
2022-01-19,Shillong,1.0,Good,20,O3
2022-01-20,Shillong,1.0,Good,21,PM2.5
2022-01-21,Shillong,1.0,Good,45,PM2.5
2022-01-22,Shillong,1.0,Good,27,O3
2022-01-23,Shillong,1.0,Good,28,PM2.5
2022-01-24,Shillong,1.0,Good,32,PM2.5
2022-01-30,Shillong,1.0,Satisfactory,52,PM2.5
2022-01-31,Shillong,1.0,Good,44,PM2.5
2022-02-02,Shillong,1.0,Good,41,PM2.5
2022-02-03,Shillong,1.0,Good,39,PM2.5
2022-02-04,Shillong,1.0,Good,49,PM2.5
2022-02-09,Shillong,1.0,Good,36,PM2.5
2022-02-16,Shillong,1.0,Good,40,PM2.5
2022-02-18,Shillong,1.0,Satisfactory,54,PM2.5
2022-02-19,Shillong,1.0,Satisfactory,60,PM2.5
2022-02-20,Shillong,1.0,Good,49,O3
2022-02-23,Shillong,1.0,Good,49,PM2.5
2022-02-25,Shillong,1.0,Good,50,PM2.5
2022-02-26,Shillong,1.0,Good,36,O3
2022-03-02,Shillong,1.0,Satisfactory,56,PM2.5
2022-03-03,Shillong,1.0,Satisfactory,60,PM2.5
2022-03-04,Shillong,1.0,Good,45,PM2.5
2022-03-05,Shillong,1.0,Good,43,O3
2022-03-09,Shillong,1.0,Satisfactory,63,PM2.5
2022-03-10,Shillong,1.0,Satisfactory,52,PM2.5
2022-03-11,Shillong,1.0,Satisfactory,55,PM2.5
2022-03-16,Shillong,1.0,Satisfactory,82,PM2.5
2022-03-17,Shillong,1.0,Satisfactory,65,PM2.5
2022-03-18,Shillong,1.0,Satisfactory,75,PM2.5
2022-03-19,Shillong,1.0,Satisfactory,97,PM2.5
2022-03-20,Shillong,1.0,Satisfactory,71,PM2.5
2022-03-21,Shillong,1.0,Satisfactory,53,O3
2022-03-22,Shillong,1.0,Good,42,PM2.5
2022-03-23,Shillong,1.0,Satisfactory,56,PM2.5
2022-03-24,Shillong,1.0,Satisfactory,68,O3
2022-03-25,Shillong,1.0,Satisfactory,87,PM10
2022-03-26,Shillong,1.0,Satisfactory,62,PM10
2022-03-27,Shillong,1.0,Good,41,PM2.5
2022-03-28,Shillong,1.0,Satisfactory,51,PM2.5
2022-03-29,Shillong,1.0,Good,46,PM2.5
2022-03-30,Shillong,1.0,Good,48,PM2.5
2022-03-31,Shillong,1.0,Good,38,PM2.5
2022-04-01,Shillong,1.0,Good,30,O3
2022-04-02,Shillong,1.0,Good,31,O3
2022-04-06,Shillong,1.0,Satisfactory,59,PM10
2022-04-07,Shillong,1.0,Satisfactory,59,PM10
2022-04-08,Shillong,1.0,Satisfactory,55,O3
2022-04-09,Shillong,1.0,Satisfactory,51,PM10
2022-04-10,Shillong,1.0,Good,30,PM2.5
2022-04-11,Shillong,1.0,Good,41,PM10
2022-04-12,Shillong,1.0,Good,41,PM2.5
2022-04-13,Shillong,1.0,Good,48,PM10
2022-04-19,Shillong,1.0,Satisfactory,68,PM2.5
2022-04-21,Shillong,2.0,Good,31,PM2.5
2022-04-22,Shillong,2.0,Good,50,"O3, PM10"
2022-04-23,Shillong,2.0,Satisfactory,66,O3
2022-04-24,Shillong,2.0,Satisfactory,85,"O3, PM10"
2022-04-25,Shillong,2.0,Satisfactory,88,PM10
2022-04-26,Shillong,2.0,Satisfactory,78,"O3, PM10"
2022-04-27,Shillong,1.0,Satisfactory,53,PM10
2022-04-28,Shillong,2.0,Satisfactory,71,PM10
2022-04-29,Shillong,2.0,Satisfactory,82,"PM10, PM2.5"
2022-04-30,Shillong,1.0,Good,39,PM10
2022-05-05,Shillong,1.0,Good,46,PM10
2022-05-06,Shillong,2.0,Good,28,PM2.5
2022-05-07,Shillong,2.0,Good,38,"PM10, PM2.5"
2022-05-08,Shillong,1.0,Good,34,PM10
2022-05-09,Shillong,1.0,Good,42,PM10
2022-05-10,Shillong,2.0,Good,32,PM10
2022-05-11,Shillong,2.0,Good,15,CO
2022-05-12,Shillong,1.0,Good,16,O3
2022-05-13,Shillong,2.0,Good,24,"CO, PM10"
2022-05-14,Shillong,1.0,Good,30,PM2.5
2022-05-15,Shillong,1.0,Good,46,NO2
2022-05-16,Shillong,1.0,Satisfactory,55,NO2
2022-05-17,Shillong,1.0,Good,44,NO2
2022-05-18,Shillong,1.0,Satisfactory,72,NO2
2022-05-19,Shillong,2.0,Satisfactory,56,"NO2, PM10"
2022-05-20,Shillong,1.0,Satisfactory,60,NO2
2022-05-21,Shillong,2.0,Good,30,"O3, PM10"
2022-05-22,Shillong,1.0,Good,46,PM10
2022-05-23,Shillong,1.0,Satisfactory,59,PM10
2022-05-24,Shillong,2.0,Good,44,PM10
2022-05-25,Shillong,2.0,Good,43,PM10
2022-05-26,Shillong,2.0,Good,36,PM10
2022-05-27,Shillong,2.0,Satisfactory,54,PM10
2022-05-28,Shillong,2.0,Satisfactory,52,PM10
2022-05-29,Shillong,2.0,Good,39,PM10
2022-05-30,Shillong,2.0,Good,40,PM2.5
2022-05-31,Shillong,2.0,Good,36,"PM10, PM2.5"
2022-06-01,Shillong,1.0,Good,44,PM10
2022-06-02,Shillong,1.0,Good,37,PM2.5
2022-06-03,Shillong,1.0,Good,47,PM10
2022-06-04,Shillong,1.0,Good,43,NO2
2022-06-05,Shillong,1.0,Good,43,PM10
2022-06-06,Shillong,1.0,Good,48,PM10
2022-06-07,Shillong,1.0,Satisfactory,60,PM10
2022-06-08,Shillong,1.0,Good,44,PM10
2022-06-09,Shillong,1.0,Satisfactory,58,PM10
2022-06-10,Shillong,1.0,Good,35,PM10
2022-06-11,Shillong,1.0,Satisfactory,66,PM10
2022-06-12,Shillong,1.0,Good,39,PM10
2022-06-13,Shillong,1.0,Good,33,PM10
2022-06-14,Shillong,1.0,Good,50,PM10
2022-06-15,Shillong,1.0,Good,48,NO2
2022-06-16,Shillong,1.0,Good,49,NO2
2022-06-17,Shillong,1.0,Good,23,NO2
2022-06-18,Shillong,1.0,Good,28,NO2
2022-06-19,Shillong,1.0,Good,22,PM10
2022-06-20,Shillong,1.0,Good,20,PM2.5
2022-06-21,Shillong,1.0,Good,20,CO
2022-06-22,Shillong,1.0,Good,29,PM2.5
2022-06-23,Shillong,1.0,Good,33,PM10
2022-06-24,Shillong,1.0,Good,17,PM10
2022-06-25,Shillong,1.0,Good,23,PM10
2022-06-26,Shillong,1.0,Good,12,PM10
2022-06-27,Shillong,1.0,Good,17,PM10
2022-06-28,Shillong,1.0,Good,14,CO
2022-06-29,Shillong,1.0,Good,24,PM10
2022-06-30,Shillong,1.0,Good,33,PM10
2022-07-01,Shillong,1.0,Good,24,PM10
2022-07-02,Shillong,2.0,Good,36,PM10
2022-07-03,Shillong,2.0,Good,24,"PM10, SO2"
2022-07-04,Shillong,2.0,Good,20,"PM10, SO2"
2022-07-05,Shillong,2.0,Good,28,"PM10, PM2.5"
2022-07-06,Shillong,2.0,Good,26,"O3, PM10"
2022-07-07,Shillong,2.0,Good,29,"O3, PM10"
2022-07-08,Shillong,1.0,Good,37,PM10
2022-07-09,Shillong,1.0,Good,38,PM10